Zurück zum Katalog

COSMOS 1045

AktivNavigationPO
NORAD 11084·PAYLOAD·🇷🇺 Russia

Gestartet Oct 26, 1978 von Plesetsk Cosmodrome

Loading…

Nächste Überflüge (nächste 24 Stunden)

TLE

AktuellSource: Space-Track

Epoche: Sep 14, 2026, 05:00 UTC

1 11084U 78100A   26257.20892425  .00000037  00000-0  36141-3 0  9992
2 11084  82.5551 351.6900 0013043 146.8471 237.9960 11.96770790 91911

Verfolge COSMOS 1045 in Echtzeit mit AllMySat

Download on the App Store